Location: Oakhurst
(33.6448°N, 111.9543°W)
Time: 13:44:11
(UTC+00:00)

BEESAT 3 - Visible Passes

Search period start: 03 August 2021 00:00
Search period end: 13 August 2021 00:00
Orbit: 488 x 506 km, 64.9° (Epoch: 03 August)

Date Brightness Start Highest point End Pass type
(mag) Time Alt. Az. Time Alt. Az. Time Alt. Az.
05 Aug ? 12:12:40 10° SSW 12:16:19 51° ESE 12:20:01 10° NE visible
06 Aug ? 11:51:08 10° S 11:54:43 43° ESE 11:58:20 10° NE visible
07 Aug ? 11:29:46 11° S 11:33:06 37° ESE 11:36:37 10° NE visible
08 Aug ? 11:09:22 18° SSE 11:11:29 32° ESE 11:14:54 10° NE visible
09 Aug ? 10:48:52 25° SE 10:49:52 28° ESE 10:53:09 10° NE visible
10 Aug ? 10:28:18 24° ESE 10:28:18 24° ESE 10:31:22 10° NE visible
10 Aug ? 12:02:56 12° W 12:05:26 20° NW 12:08:16 10° N visible
11 Aug ? 10:07:40 19° E 10:07:40 19° E 10:09:34 10° ENE visible
11 Aug ? 11:42:17 18° W 11:43:44 22° NW 11:46:46 10° N visible
12 Aug ? 09:46:57 13° ENE 09:46:57 13° ENE 09:47:43 10° ENE visible
12 Aug ? 11:21:34 24° WNW 11:22:03 25° NW 11:25:14 10° N visible
